Search your local weather  

 
Advertise Here

Hazardous Weather Conditions

No active alerts for PHILADELPHIA, PENNSYLVANIA

Current Conditions: PHILADELPHIA, PENNSYLVANIA

Mostly Cloudy


70.0 F

Last Updated on Apr 21 2019, 5:54 pm EDT
Humidity: 37%
Wind Speed: W 6.9 mph
Barometer 30.01 in
Dewpoint: 42.1 F
Visibility: 10.00 mi
Precip: --
Heat Index: NA
Wind Chill: NA
Current conditions at:

Philadelphia, Northeast Philadelphia Airport, PA (KPNE)

Lat: 40.07 Lon: -75.013

Local Radar Image active severe weather and emergency alerts image image weather storm and storm spotter reports image weather observation monitoring service image
Local
Radar
Active
Alerts
Storm Reports Weather
Monitoring

Weather Alert Notification Services


ialert severe weather and emergency alerts by text message and email ialert daily weather forecast by email and text message service ialert real-time weather-observation monitoring and alert notification service ialert storm report monitoring alert notification

Observation History for PHILADELPHIA, PENNSYLVANIA


Time Wind
(mph)
Vis
(mi)
Weather Precip (in) Temperature (F) Relative
Humidity
Wind
Chill
(°F)
Heat
Index
(°F)
Pressure
Air Dwpt altimeter
(in)
sea level
(mb)
5:54 pm EDT W 6.9 10.00 Mostly Cloudy -- 70.0 42.1 37% NA NA 30.01 1016.3
4:54 pm EDT N 0.0 10.00 Mostly Cloudy -- 69.0 39.0 33% NA NA 30.00 1015.8
3:54 pm EDT W 4.6 10.00 Overcast -- 69.0 44.1 41% NA NA 29.99 1015.5
2:54 pm EDT W 5.8 10.00 Mostly Cloudy -- 69.0 42.1 38% NA NA 29.98 1015.3
1:54 pm EDT 3.5 10.00 Mostly Cloudy -- 69.0 45.0 42% NA NA 29.99 1015.6
12:54 pm EDT S 8.1 10.00 Mostly Cloudy -- 70.0 46.9 44% NA NA 29.99 1015.6
11:54 am EDT W 6.9 10.00 Overcast -- 70.0 48.9 47% NA NA 29.98 1015.3
10:54 am EDT W 9.2 10.00 Partly Cloudy -- 67.0 51.1 57% NA NA 29.97 1014.8
9:54 am EDT SW 6.9 10.00 Mostly Cloudy -- 62.0 52.0 70% 62 NA 29.96 1014.6
8:54 am EDT S 3.5 10.00 Mostly Cloudy -- 59.0 51.1 75% NA NA 29.96 1014.3
7:54 am EDT E 3.5 10.00 Fair -- 57.0 51.1 81% NA NA 29.94 1013.8
6:54 am EDT N 0.0 9.00 Fair -- 54.0 48.9 83% NA NA 29.93 1013.4
5:54 am EDT E 5.8 10.00 Mostly Cloudy -- 55.0 48.9 80% 54 NA 29.89 1012.2
4:54 am EDT E 4.6 10.00 Overcast -- 56.0 50.0 81% 55 NA 29.88 1011.6
3:54 am EDT E 3.5 10.00 Overcast -- 56.0 50.0 81% NA NA 29.88 1011.6
2:54 am EDT E 4.6 10.00 Partly Cloudy -- 55.0 48.9 80% 54 NA 29.85 1010.9
1:54 am EDT N 0.0 10.00 Partly Cloudy -- 56.0 48.9 77% NA NA 29.85 1010.9
12:54 am EDT N 0.0 10.00 Fair -- 57.0 48.9 74% NA NA 29.86 1011.2
11:54 pm EDT N 0.0 10.00 Fair -- 58.0 48.9 72% NA NA 29.86 1011.0
10:54 pm EDT N 0.0 10.00 Fair -- 60.0 48.9 67% NA NA 29.84 1010.3
9:54 pm EDT SE 4.6 10.00 Fair -- 61.0 48.9 65% 61 NA 29.83 1010.0
8:54 pm EDT SE 6.9 10.00 Fair -- 62.0 48.9 62% 62 NA 29.81 1009.2
7:54 pm EDT S 6.9 10.00 Fair -- 66.0 48.9 54% NA NA 29.81 1009.3
6:54 pm EDT SE 6.9 10.00 Fair -- 68.0 46.9 47% NA NA 29.77 1007.9

Regional Weather Observation

Pottstown, Pottstown Limerick Airport, PA (KPTW)

Overcast
64.0 F

Doylestown, Doylestown Airport, PA (KDYL)

Overcast
64.0 F

Quakertown Airport, PA (KUKT)

Overcast
64.0 F

Allentown Queen City Municipal Airport, PA (KXLL)

Overcast
64.0 F

Reading, Reading Regional Airport, PA (KRDG)

Partly Cloudy
69.0 F

Philadelphia, Philadelphia International Airport, PA (KPHL)

Mostly Cloudy
68.0 F
Advertise Here

Advertise Here